SIA162 YPDN-YBCS

Flight info

Callsign SIA162
Flight time N/A
Altitude 33000
Route DN Y25 RUPEG DCT SOCAR J61 CS
Aircraft B739/M-SDE2E3FGHIRWXY/LB1

Departure

Time 2026-04-20 06:29
Airport Darwin International Airport / RAAF Darwin (YPDN)

Arrival

Time N/A
Airport Cairns International Airport (YBCS)
Time Latitude Longitude Altitude Speed Heading
2026-04-20 06:06 -12.40885 130.87740 89 ft 0 kts 19°
2026-04-20 06:20 -12.40908 130.87733 91 ft 4 kts 12°
2026-04-20 06:20 -12.40934 130.87730 90 ft 4 kts 354°
2026-04-20 06:20 -12.40957 130.87737 92 ft 4 kts 304°
2026-04-20 06:21 -12.40961 130.87745 90 ft 1 kts 280°
2026-04-20 06:23 -12.40961 130.87743 89 ft 1 kts 280°
2026-04-20 06:23 -12.40958 130.87726 90 ft 4 kts 280°
2026-04-20 06:24 -12.40952 130.87693 90 ft 6 kts 280°
2026-04-20 06:24 -12.40958 130.87647 91 ft 8 kts 244°
2026-04-20 06:24 -12.41000 130.87602 89 ft 10 kts 208°
2026-04-20 06:24 -12.41069 130.87576 89 ft 11 kts 198°
2026-04-20 06:25 -12.41150 130.87547 89 ft 13 kts 199°
2026-04-20 06:25 -12.41240 130.87515 89 ft 14 kts 199°
2026-04-20 06:25 -12.41338 130.87480 90 ft 16 kts 199°
2026-04-20 06:25 -12.41444 130.87439 92 ft 17 kts 213°
2026-04-20 06:26 -12.41490 130.87329 89 ft 18 kts 277°
2026-04-20 06:26 -12.41450 130.87204 91 ft 19 kts 289°
2026-04-20 06:26 -12.41406 130.87075 90 ft 20 kts 289°
2026-04-20 06:26 -12.41360 130.86937 91 ft 21 kts 289°
2026-04-20 06:27 -12.41311 130.86793 91 ft 22 kts 289°
2026-04-20 06:27 -12.41260 130.86644 90 ft 22 kts 289°
2026-04-20 06:27 -12.41199 130.86508 89 ft 20 kts 315°
2026-04-20 06:27 -12.41097 130.86480 90 ft 12 kts 12°
2026-04-20 06:28 -12.41022 130.86506 90 ft 11 kts 21°
2026-04-20 06:28 -12.40961 130.86528 89 ft 8 kts 19°
2026-04-20 06:28 -12.40949 130.86570 91 ft 8 kts 115°
2026-04-20 06:28 -12.40983 130.86666 90 ft 28 kts 109°
2026-04-20 06:29 -12.41123 130.87080 90 ft 94 kts 109°
2026-04-20 06:29 -12.41400 130.87899 91 ft 147 kts 108°
2026-04-20 06:29 -12.41699 130.89028 221 ft 178 kts 101°
2026-04-20 06:29 -12.42037 130.90226 888 ft 172 kts 105°
2026-04-20 06:30 -12.42422 130.91401 1458 ft 175 kts 109°
2026-04-20 06:30 -12.42844 130.92546 2074 ft 171 kts 110°
2026-04-20 06:30 -12.43294 130.93769 2327 ft 195 kts 109°
2026-04-20 06:30 -12.43788 130.95144 2531 ft 217 kts 109°
2026-04-20 06:31 -12.44313 130.96650 2909 ft 230 kts 109°
2026-04-20 06:31 -12.44868 130.98270 3137 ft 252 kts 108°
2026-04-20 06:31 -12.45467 131.00048 3294 ft 277 kts 109°
2026-04-20 06:31 -12.46120 131.02000 3499 ft 301 kts 108°
2026-04-20 06:32 -12.46818 131.04101 3689 ft 323 kts 107°
2026-04-20 06:32 -12.47385 131.06396 3870 ft 343 kts 100°
2026-04-20 06:32 -12.47771 131.08805 4427 ft 351 kts 98°
2026-04-20 06:32 -12.48118 131.11277 5121 ft 354 kts 98°
2026-04-20 06:33 -12.48468 131.13786 5687 ft 357 kts 98°
2026-04-20 06:33 -12.48832 131.16316 6136 ft 361 kts 98°
2026-04-20 06:33 -12.49211 131.18871 6617 ft 364 kts 98°
2026-04-20 06:33 -12.49601 131.21438 7082 ft 367 kts 99°
2026-04-20 06:34 -12.50000 131.24030 7522 ft 370 kts 99°
2026-04-20 06:34 -12.50407 131.26645 7941 ft 374 kts 99°
2026-04-20 06:34 -12.51235 131.31946 8832 ft 381 kts 99°
2026-04-20 06:35 -12.51656 131.34637 9323 ft 383 kts 99°
2026-04-20 06:35 -12.52077 131.37331 9823 ft 386 kts 99°
2026-04-20 06:35 -12.52497 131.40018 10282 ft 388 kts 99°
2026-04-20 06:35 -12.52911 131.42667 10692 ft 391 kts 99°
2026-04-20 06:36 -12.53330 131.45350 11054 ft 395 kts 99°
2026-04-20 06:36 -12.53764 131.48138 11468 ft 397 kts 99°
2026-04-20 06:36 -12.54202 131.50945 11885 ft 400 kts 99°
2026-04-20 06:36 -12.54629 131.53687 12219 ft 405 kts 99°
2026-04-20 06:37 -12.55062 131.56470 12556 ft 409 kts 99°
2026-04-20 06:37 -12.55498 131.59277 12963 ft 410 kts 99°
2026-04-20 06:37 -12.55947 131.62168 13352 ft 413 kts 99°
2026-04-20 06:37 -12.56401 131.65089 13665 ft 417 kts 99°
2026-04-20 06:38 -12.56858 131.68033 13990 ft 419 kts 99°
2026-04-20 06:38 -12.57315 131.70980 14356 ft 420 kts 99°
2026-04-20 06:38 -12.57770 131.73917 14679 ft 422 kts 99°
2026-04-20 06:38 -12.58370 131.76865 14981 ft 424 kts 105°
2026-04-20 06:39 -12.59179 131.79779 15299 ft 426 kts 108°
2026-04-20 06:39 -12.60061 131.82685 15612 ft 428 kts 108°
2026-04-20 06:39 -12.60954 131.85602 15901 ft 430 kts 108°
2026-04-20 06:39 -12.61833 131.88530 16191 ft 432 kts 108°
2026-04-20 06:40 -12.62699 131.91485 16486 ft 433 kts 108°
2026-04-20 06:40 -12.63551 131.94447 16796 ft 434 kts 107°
2026-04-20 06:40 -12.64400 131.97427 17036 ft 437 kts 107°
2026-04-20 06:40 -12.65247 132.00419 17268 ft 439 kts 107°
2026-04-20 06:41 -12.66097 132.03428 17536 ft 441 kts 107°
2026-04-20 06:41 -12.66952 132.06451 17814 ft 442 kts 107°
2026-04-20 06:41 -12.67800 132.09449 18052 ft 444 kts 107°
2026-04-20 06:41 -12.68660 132.12494 18244 ft 446 kts 107°
2026-04-20 06:42 -12.69525 132.15552 18490 ft 447 kts 107°
2026-04-20 06:42 -12.70386 132.18600 18744 ft 447 kts 107°
2026-04-20 06:42 -12.71254 132.21669 18899 ft 449 kts 107°
2026-04-20 06:42 -12.72233 132.24718 19060 ft 451 kts 112°
2026-04-20 06:43 -12.73487 132.27651 19287 ft 450 kts 116°
2026-04-20 06:43 -12.74863 132.30539 19531 ft 450 kts 117°
2026-04-20 06:43 -12.76269 132.33405 19718 ft 451 kts 117°
2026-04-20 06:43 -12.77677 132.36292 19851 ft 454 kts 117°
2026-04-20 06:44 -12.79072 132.39205 20037 ft 455 kts 116°
2026-04-20 06:44 -12.80446 132.42126 20219 ft 455 kts 116°
2026-04-20 06:44 -12.81791 132.45020 20398 ft 456 kts 116°
2026-04-20 06:44 -12.83150 132.47969 20555 ft 457 kts 116°
2026-04-20 06:45 -12.84502 132.50914 20726 ft 458 kts 116°
2026-04-20 06:45 -12.85859 132.53874 20887 ft 459 kts 116°
2026-04-20 06:45 -12.87221 132.56846 21040 ft 460 kts 116°
2026-04-20 06:45 -12.88582 132.59817 21197 ft 461 kts 116°
2026-04-20 06:46 -12.89946 132.62792 21349 ft 462 kts 116°
2026-04-20 06:46 -12.91313 132.65773 21462 ft 463 kts 116°
2026-04-20 06:46 -12.92687 132.68770 21616 ft 464 kts 116°
2026-04-20 06:46 -12.94056 132.71758 21769 ft 465 kts 116°
2026-04-20 06:47 -12.95431 132.74759 21895 ft 465 kts 116°
2026-04-20 06:47 -12.96808 132.77767 22028 ft 466 kts 116°
2026-04-20 06:47 -12.98186 132.80777 22161 ft 467 kts 116°
2026-04-20 06:47 -12.99565 132.83791 22298 ft 467 kts 116°
2026-04-20 06:48 -13.00946 132.86808 22413 ft 468 kts 116°
2026-04-20 06:48 -13.02331 132.89837 22530 ft 469 kts 116°
2026-04-20 06:48 -13.03698 132.92828 22644 ft 469 kts 116°
2026-04-20 06:48 -13.05082 132.95859 22754 ft 470 kts 116°
2026-04-20 06:49 -13.06473 132.98902 22858 ft 471 kts 116°
2026-04-20 06:49 -13.07858 133.01937 22963 ft 471 kts 116°
2026-04-20 06:49 -13.09250 133.04987 23065 ft 472 kts 116°
2026-04-20 06:49 -13.10644 133.08042 23154 ft 473 kts 116°
2026-04-20 06:50 -13.12038 133.11098 23245 ft 473 kts 116°
2026-04-20 06:50 -13.13431 133.14154 23328 ft 474 kts 116°
2026-04-20 06:50 -13.14829 133.17222 23405 ft 474 kts 116°
2026-04-20 06:50 -13.16230 133.20297 23475 ft 475 kts 116°
2026-04-20 06:51 -13.17629 133.23371 23542 ft 476 kts 116°
2026-04-20 06:51 -13.19031 133.26452 23626 ft 476 kts 116°
2026-04-20 06:51 -13.20432 133.29529 23725 ft 475 kts 116°
2026-04-20 06:51 -13.21828 133.32603 23821 ft 475 kts 116°
2026-04-20 06:52 -13.23057 133.35708 23904 ft 476 kts 111°
2026-04-20 06:52 -13.24129 133.38926 23991 ft 477 kts 109°
2026-04-20 06:52 -13.25143 133.42166 24091 ft 477 kts 109°
2026-04-20 06:52 -13.26141 133.45411 24181 ft 477 kts 109°
2026-04-20 06:53 -13.27144 133.48651 24258 ft 477 kts 109°
2026-04-20 06:53 -13.28160 133.51895 24373 ft 477 kts 109°
2026-04-20 06:53 -13.29188 133.55133 24484 ft 476 kts 109°
2026-04-20 06:53 -13.30220 133.58356 24587 ft 476 kts 110°
2026-04-20 06:54 -13.31260 133.61591 24693 ft 477 kts 110°
2026-04-20 06:54 -13.32304 133.64829 24803 ft 476 kts 110°
2026-04-20 06:54 -13.33347 133.68063 24892 ft 477 kts 110°
2026-04-20 06:54 -13.34388 133.71291 24996 ft 477 kts 110°
2026-04-20 06:55 -13.35431 133.74533 25119 ft 477 kts 110°
2026-04-20 06:55 -13.36459 133.77729 25233 ft 477 kts 110°
2026-04-20 06:55 -13.37498 133.80961 25353 ft 477 kts 110°
2026-04-20 06:55 -13.38536 133.84193 25457 ft 477 kts 110°
2026-04-20 06:56 -13.39571 133.87417 25562 ft 477 kts 110°
2026-04-20 06:56 -13.40613 133.90666 25689 ft 477 kts 110°
2026-04-20 06:56 -13.41650 133.93902 25838 ft 477 kts 110°
2026-04-20 06:56 -13.42688 133.97140 25952 ft 477 kts 109°
2026-04-20 06:57 -13.43723 134.00371 26064 ft 477 kts 110°
2026-04-20 06:57 -13.44761 134.03612 26212 ft 477 kts 110°
2026-04-20 06:57 -13.45797 134.06850 26331 ft 477 kts 109°
2026-04-20 06:57 -13.46835 134.10095 26421 ft 478 kts 110°
2026-04-20 06:58 -13.47874 134.13345 26522 ft 479 kts 110°
2026-04-20 06:58 -13.48918 134.16611 26670 ft 479 kts 110°
2026-04-20 06:58 -13.49953 134.19853 26846 ft 478 kts 109°
2026-04-20 06:58 -13.50977 134.23061 26985 ft 478 kts 109°
2026-04-20 06:59 -13.52018 134.26324 27091 ft 479 kts 110°
2026-04-20 06:59 -13.53056 134.29578 27217 ft 480 kts 110°
2026-04-20 06:59 -13.54098 134.32846 27382 ft 480 kts 109°
2026-04-20 06:59 -13.55138 134.36110 27545 ft 479 kts 109°
2026-04-20 07:00 -13.56171 134.39356 27717 ft 479 kts 109°
2026-04-20 07:00 -13.57208 134.42613 27871 ft 479 kts 110°
2026-04-20 07:00 -13.58244 134.45870 28003 ft 479 kts 110°
2026-04-20 07:00 -13.59267 134.49085 28170 ft 479 kts 109°
2026-04-20 07:01 -13.60314 134.52380 28363 ft 478 kts 109°
2026-04-20 07:01 -13.61332 134.55586 28529 ft 478 kts 109°
2026-04-20 07:01 -13.62367 134.58845 28666 ft 480 kts 109°
2026-04-20 07:01 -13.63403 134.62109 28793 ft 480 kts 109°
2026-04-20 07:02 -13.64440 134.65378 28997 ft 480 kts 109°
2026-04-20 07:02 -13.65473 134.68637 29225 ft 479 kts 109°
2026-04-20 07:02 -13.66504 134.71891 29406 ft 479 kts 109°
2026-04-20 07:02 -13.67536 134.75149 29577 ft 480 kts 109°
2026-04-20 07:03 -13.68571 134.78418 29792 ft 479 kts 109°
2026-04-20 07:03 -13.69602 134.81678 29993 ft 479 kts 109°
2026-04-20 07:03 -13.70632 134.84934 30188 ft 479 kts 109°
2026-04-20 07:03 -13.71659 134.88185 30385 ft 478 kts 109°
2026-04-20 07:04 -13.72689 134.91442 30580 ft 478 kts 109°
2026-04-20 07:04 -13.73368 134.93595 30719 ft 477 kts 109°
2026-04-20 07:04 -13.74394 134.96846 30929 ft 477 kts 109°
2026-04-20 07:04 -13.75753 135.01152 31188 ft 477 kts 109°
2026-04-20 07:05 -13.76776 135.04398 31384 ft 477 kts 109°
2026-04-20 07:05 -13.77468 135.06593 31533 ft 476 kts 109°
2026-04-20 07:05 -13.78485 135.09821 31765 ft 476 kts 109°
2026-04-20 07:05 -13.79504 135.13059 31981 ft 475 kts 109°
2026-04-20 07:06 -13.80523 135.16295 32207 ft 475 kts 109°
2026-04-20 07:06 -13.81528 135.19489 32457 ft 474 kts 109°
2026-04-20 07:06 -13.82540 135.22711 32684 ft 474 kts 109°
2026-04-20 07:06 -13.83555 135.25941 32878 ft 474 kts 109°
2026-04-20 07:07 -13.84571 135.29174 33089 ft 474 kts 109°
2026-04-20 07:07 -13.85585 135.32406 33340 ft 473 kts 109°
2026-04-20 07:07 -13.86593 135.35617 33603 ft 472 kts 109°
2026-04-20 07:07 -13.87603 135.38837 33831 ft 473 kts 109°
2026-04-20 07:08 -13.88613 135.42060 34007 ft 473 kts 109°
2026-04-20 07:08 -13.89622 135.45283 34224 ft 472 kts 109°
2026-04-20 07:08 -13.90627 135.48491 34433 ft 471 kts 108°
2026-04-20 07:08 -13.91633 135.51706 34596 ft 472 kts 108°
2026-04-20 07:09 -13.92639 135.54923 34744 ft 472 kts 108°
2026-04-20 07:09 -13.93642 135.58130 34893 ft 468 kts 108°
2026-04-20 07:09 -13.94636 135.61310 34896 ft 468 kts 108°
2026-04-20 07:10 -13.96630 135.67682 34923 ft 472 kts 108°
2026-04-20 07:10 -13.98649 135.74140 34923 ft 475 kts 108°
2026-04-20 07:11 -14.00679 135.80645 34922 ft 477 kts 108°
2026-04-20 07:11 -14.02710 135.87158 34913 ft 478 kts 108°
2026-04-20 07:12 -14.04739 135.93673 34911 ft 477 kts 108°
2026-04-20 07:12 -14.06758 136.00160 34909 ft 475 kts 108°
2026-04-20 07:13 -14.08770 136.06634 34911 ft 473 kts 108°
2026-04-20 07:13 -14.10756 136.13032 34910 ft 471 kts 108°
2026-04-20 07:14 -14.12747 136.19449 34909 ft 470 kts 108°
2026-04-20 07:14 -14.14731 136.25850 34914 ft 469 kts 108°
2026-04-20 07:15 -14.16713 136.32254 34919 ft 469 kts 108°
2026-04-20 07:15 -14.18692 136.38653 34918 ft 469 kts 109°
2026-04-20 07:16 -14.20676 136.45073 34919 ft 470 kts 109°
2026-04-20 07:16 -14.22663 136.51511 34919 ft 472 kts 109°
2026-04-20 07:17 -14.24642 136.57933 34923 ft 473 kts 109°
2026-04-20 07:17 -14.26651 136.64457 34922 ft 475 kts 109°
2026-04-20 07:18 -14.28642 136.70927 34912 ft 476 kts 109°
2026-04-20 07:18 -14.30641 136.77431 34918 ft 476 kts 109°
2026-04-20 07:19 -14.32640 136.83945 34916 ft 476 kts 109°
2026-04-20 07:19 -14.34638 136.90460 34917 ft 476 kts 109°
2026-04-20 07:20 -14.36622 136.96936 34912 ft 475 kts 109°
2026-04-20 07:20 -14.38609 137.03432 34912 ft 475 kts 109°
2026-04-20 07:21 -14.40595 137.09927 34915 ft 474 kts 109°
2026-04-20 07:21 -14.42573 137.16407 34917 ft 473 kts 109°
2026-04-20 07:22 -14.44550 137.22888 34921 ft 473 kts 109°
2026-04-20 07:22 -14.46521 137.29357 34917 ft 472 kts 109°
2026-04-20 07:23 -14.48488 137.35819 34913 ft 472 kts 109°
2026-04-20 07:23 -14.50440 137.42240 34916 ft 472 kts 109°
2026-04-20 07:24 -14.52403 137.48702 34921 ft 472 kts 109°
2026-04-20 07:24 -14.54367 137.55174 34918 ft 472 kts 109°
2026-04-20 07:25 -14.56327 137.61643 34916 ft 472 kts 109°
2026-04-20 07:25 -14.58291 137.68131 34918 ft 473 kts 109°
2026-04-20 07:26 -14.60252 137.74615 34917 ft 473 kts 109°
2026-04-20 07:26 -14.61359 137.78278 34916 ft 473 kts 109°